Location: Fountain Hills
(33.6120°N, 111.7170°W)
Time: 08:16:18
(UTC-07:00)

Daily predictions for brighter satellites

Satellite Brightness Start Highest point End
(mag) Time Altitude Azimuth Time Altitude Azimuth Time Altitude Azimuth
BREEZE-M DEB (TANK) 4.5 18:05:47 10° WNW 18:09:02 49° SW 18:18:34 10° SE
Haruka 3.4 18:05:38 10° WSW 18:09:07 65° SSE 18:17:46 10° E
MOS 1 4.4 18:06:48 10° SSE 18:12:27 88° WSW 18:18:09 10° NNW
Thor Agena Rocket 3.8 18:07:48 10° N 18:13:00 76° WNW 18:18:06 10° SSW
SPOT 3 Rocket 3.6 18:08:27 10° SSE 18:13:36 90° W 18:18:47 10° NNW
MSX 3.8 18:10:49 10° SSE 18:16:32 84° ENE 18:22:17 10° NNW
Cosmos 1300 3.3 18:14:16 10° NNW 18:18:04 63° W 18:21:51 10° S
Cosmos 1633 Rocket 3.8 18:15:43 10° SSE 18:19:38 32° E 18:23:34 10° NNE
Cosmos 2237 Rocket 3.9 18:16:51 10° SW 18:21:49 32° WNW 18:26:50 10° N
CZ-4 R/B 2.9 18:19:03 10° S 18:22:41 40° W 18:26:23 10° NNW
Delta 2 Rocket 4.3 18:19:57 10° SSW 18:22:47 24° SSE 18:25:34 10° E
Meteor 2-10 4.0 18:18:48 10° N 18:23:59 82° E 18:29:20 10° S
BREEZE-M DEB (TANK) 1.0 18:25:32 10° SW 18:27:06 72° SE 18:29:02 11° ENE
Timation 1 Rocket 4.3 18:22:28 10° NNW 18:28:30 72° ENE 18:34:28 10° SSE
SL-16 R/B 2.6 18:25:19 10° SSW 18:30:55 66° WNW 18:36:34 10° NNE
Cosmos 1092 Rocket 4.5 18:27:11 10° SSE 18:32:57 38° E 18:38:44 10° NNE
NOSS 3-1 (C) 4.4 18:29:01 10° SSE 18:33:21 23° ESE 18:37:29 12° ENE
Cosmos 1900 4.3 18:30:01 10° NNW 18:34:58 65° ENE 18:39:57 10° SE
Cosmos 1484 Rocket 2.9 18:33:28 10° S 18:37:24 84° W 18:41:24 10° NNW
ALOS 3.7 18:36:10 10° ESE 18:39:06 17° ENE 18:42:02 10° NNE
Cosmos 773 Rocket 3.9 18:34:41 10° S 18:39:48 72° ESE 18:45:00 10° NNE
Meteor 1-28 Rocket 3.1 18:38:48 10° NNE 18:42:31 80° E 18:46:15 10° S
BREEZE-M DEB (TANK) 4.2 18:41:02 10° WNW 18:42:47 17° NNW 18:44:32 10° NNE
Cosmos 1340 Rocket 4.4 18:39:44 10° SSW 18:43:23 36° WNW 18:47:02 10° N
Genesis I 4.5 18:43:08 10° SSE 18:46:15 23° ESE 18:47:45 18° E
Cosmos 292 Rocket 4.0 18:43:25 10° S 18:47:57 47° ESE 18:52:31 10° NNE
USA 215 4.3 18:44:05 14° ENE 18:48:10 26° NNE 18:53:20 10° NNW
Cosmos 2297 3.8 18:43:13 10° NNW 18:48:57 86° WSW 18:54:41 10° SSE
METEOR-M 4.3 18:44:08 10° SE 18:49:12 47° ENE 18:54:19 10° N
Cosmos 1707 Rocket 3.4 18:45:58 10° N 18:50:20 83° E 18:54:41 10° S
COSMO-SKYMED 1 3.5 18:49:06 10° N 18:53:18 51° WNW 18:57:30 10° SSW
CZ-3A R/B 3.5 18:49:28 10° NNW 18:53:46 35° NE 19:00:06 10° ESE
NOAA 12 4.1 18:48:43 10° SSE 18:53:48 56° ENE 18:58:57 10° N
Cosmos 1666 Rocket 3.9 18:52:22 10° SSW 18:56:40 68° W 19:01:03 10° N
Cosmos 2112 Rocket 4.3 18:54:29 10° S 18:59:24 45° ESE 19:03:43 13° NNE
Cosmos 1869 3.5 18:57:48 10° N 19:01:44 48° E 19:05:37 10° SSE
Cosmos 1626 3.4 18:58:17 10° SSW 19:01:50 42° W 19:05:24 10° N
Lacrosse 4 Rocket 1.5 19:02:51 10° NNW 19:06:46 46° ENE 19:09:37 17° SE
Cosmos 1943 3.7 19:02:47 10° S 19:07:55 37° ESE 19:10:30 24° ENE
Cosmos 1933 Rocket 3.6 19:03:54 10° S 19:08:12 53° E 19:12:33 10° NNE
Cosmos 1184 Rocket 4.4 19:07:59 10° SSW 19:11:06 36° W 19:14:13 10° N
Milstar 3 4.3 19:05:22 10° W 19:11:09 30° SSW 19:17:15 10° SE
Helios 1B rocket 4.3 19:13:33 15° SE 19:13:33 15° SE 19:14:40 10° SSE
TIMED 4.4 19:07:25 10° N 19:11:46 63° ENE 19:16:05 10° SSE
Resurs 01 Rocket 2.2 19:09:30 10° SE 19:13:29 34° ENE 19:17:29 10° N
FREGAT/IRIS 2.5 19:15:42 10° SSE 19:18:45 87° ENE 19:21:48 10° N
ISS -0.9 19:21:28 10° S 19:22:11 13° SSE 19:22:11 13° SSE
SL-19 R/B 4.3 19:19:47 10° SSE 19:25:35 61° ENE 19:31:06 10° N
Tiangong 1 2.1 19:23:13 10° W 19:25:54 34° NNW 19:25:54 34° NNW
Iridium 4 Rocket 3.3 19:23:23 10° S 19:27:53 72° W 19:32:07 10° N
Cosmos 1470 Rocket 3.7 19:25:30 10° SSW 19:29:50 74° W 19:34:11 10° N
Spot 2 Rocket 3.5 19:25:24 10° SSE 19:30:17 53° ENE 19:35:11 10° N
Cosmos 1242 Rocket 2.3 19:26:52 10° N 19:30:22 89° W 19:33:52 10° S
Cosmos 1627 Rocket 4.3 19:26:58 10° S 19:33:09 79° E 19:39:17 10° N
Cosmos 1455 4.0 19:30:01 10° NNW 19:33:26 32° W 19:36:51 10° SSW
ERBS 4.1 19:30:55 10° S 19:32:33 22° S 19:32:33 22° S
Cosmos 1655 Rocket 4.0 19:28:01 10° S 19:34:14 60° E 19:40:29 10° NNE
Cosmos 1603 4.4 19:30:29 10° SW 19:35:56 52° WNW 19:41:24 10° N
Centaur AC-119 3.5 19:38:39 10° SW 19:41:11 33° SSE 19:41:17 33° SSE
FengYun 1-2 T 4.1 19:38:26 10° SSE 19:44:00 84° ENE 19:49:33 10° NNW
NOSS 3-1 (A) 3.2 19:40:47 10° SSW 19:46:24 69° ESE 19:47:37 55° ENE
Intelsat 5-1 Rocket 4.4 19:55:41 10° SSW 19:57:36 14° S 19:57:36 14° S
Cosmos 2026 Rocket 4.1 19:51:51 10° SSW 19:58:02 72° W 20:04:11 10° N
Cosmos 2369 Rocket 3.4 20:08:00 10° NNW 20:10:49 30° N 20:10:49 30° N
ALOS 3.5 20:11:49 10° SSW 20:16:10 40° W 20:20:34 10° NNW
Cosmos 972 Rocket 4.4 20:10:47 10° NNW 20:15:22 64° NW 20:15:22 64° NW
NOSS 3-1 (C) 4.2 20:18:15 10° SW 20:23:42 44° NW 20:24:57 39° NNW
USA 215 3.3 20:31:27 69° NW 20:31:27 69° NW 20:37:08 10° NW
Resurs 01 Rocket 4.3 20:47:03 10° SW 20:49:59 17° W 20:52:57 10° NW
